Actualité

 

LogoChallengeNewsletter

Challenge du Pays Boulonnais

Voir le règlement complet du Challenge du Pays Boulonnais 2019

Classement aprés 10 épreuves au 06/12/19.

La cagnotte "Chronopale 2019" à partager entre tous les coureurs classés sur les 11 épreuves sera de 1 200€

Aprés 10 épreuves vous êtes 22 à pouvoir vous partager la cagnotte.

Date des épreuves

10/02/19  Les 6 Miles de Pont de Briques

23/03/19 Les Foulées Guinoises 10 Km

24/03/19  Foulées du Printemps à Nesles 10 Km

01/05/19  La Ronde du Fort de l'Heurt à Le Portel 10 Km (nature plage et falaise)

25/05/19  Semi Marathon de la Terre des 2 Caps à Wacquinghem (Sauf pour les cadets) 

09/06/19  La Win Run à Wimereux 10 Km

30/06/19  Boulogne 10 Km

13/10/19  Les Foulées de la Santé à Saint Martin 10 Km

17/11/19 Les Foulées Outreloises à Outreau  10 Km       

24/11/19  Les Foulées de la Sainte Catherine à Menneville 10 Km

07/12/19  Rues & Run Desvroises 10 Km

 

Nous contacter

Chronopale
59 Rue Léonce TOBO
62200 Boulogne sur mer
06 60 17 22 13
contact@chronopale.fr
www.chronopale.fr

 

15Km

15 KMTRAIL VALLEE DE LA COURSE du 07/04/19 (Réelle 15,4)
Rang Dossard Nom Prénom Temps Cat Rang Cat Ecart Ecart Cat Club Vitesse Km/h Temps au Km
1 348 DEHAUDT David 01:09:32 V1M 1 00:00:00 00:00:00 . 13,289 04:31
2 454 BRUNO OLIVIER 01:09:43 V1M 2 00:00:11 00:00:11 ARTOIS ATHLETISME 13,254 04:32
3 440 BOUTIN Julien 01:09:44 SEM 1 00:00:12 00:00:00 . 13,250 04:32
4 299 BASTAERT Jean-marc 01:11:34 V2M 1 00:02:02 00:00:00 . 12,911 04:39
5 236 DUCROCQ Marc-antoine 01:12:07 SEM 2 00:02:35 00:02:23 Boulogne ac 12,813 04:41
6 361 PERARD Martin 01:15:30 CAM 1 00:05:58 00:00:00 . 12,238 04:54
7 379 BAHEU Romain 01:15:43 SEM 3 00:06:11 00:05:59 . 12,203 04:55
8 277 DELCUSE Julien 01:15:46 SEM 4 00:06:14 00:06:02 . 12,195 04:55
9 266 VINCENT Maxime 01:16:02 V1M 3 00:06:30 00:06:30 . 12,153 04:56
10 434 TONNERRE Lucas 01:16:13 SEM 5 00:06:41 00:06:29 Triathlon club du montreuillois 12,123 04:57
11 408 ROSE Frederic 01:16:21 V2M 2 00:06:49 00:04:47 . 12,102 04:57
12 455 DELEPINE SEBASTIEN 01:16:41 V1M 4 00:07:09 00:07:09 . 12,050 04:59
13 365 CARPENTIER Benjamin 01:16:53 V1M 5 00:07:21 00:07:21 . 12,018 05:00
14 275 PATOUT Thomas 01:17:24 SEM 6 00:07:52 00:07:40 . 11,938 05:02
15 210 BERQUEZ Didier 01:18:06 V1M 6 00:08:34 00:08:34 . 11,831 05:04
16 206 DEPLECHIN Jimmy 01:18:13 SEM 7 00:08:41 00:08:29 . 11,813 05:05
17 441 THUILLIER Renaud 01:19:03 SEM 8 00:09:31 00:09:19 Toa 11,689 05:08
18 303 CHIVET Etienne 01:19:04 SEM 9 00:09:32 00:09:20 . 11,686 05:08
19 450 FRICHOT ANTOINE 01:19:13 SEM 10 00:09:41 00:09:29 - 11,664 05:09
20 257 COUVELARD Michel 01:19:33 V3M 1 00:10:01 00:00:00 . 11,615 05:10
21 350 DUCLERMORTIER David 01:19:56 V1M 7 00:10:24 00:10:24 . 11,560 05:11
22 468 CARON FRANCOIS 01:20:11 SEM 11 00:10:39 00:10:27 . 11,524 05:12
23 461 BARROIS CEDRIC 01:20:19 V1M 8 00:10:47 00:10:47 LYS CALAIS TRIATHLON 11,504 05:13
24 447 MAILLARD FABIEN 01:20:37 V1M 9 00:11:05 00:11:05 AS CRS 16 11,462 05:14
25 259 LEGRAND Alexis 01:20:38 SEM 12 00:11:06 00:10:54 Bourthoise de services 11,459 05:14
26 295 POUPART Nicolas 01:20:46 SEM 13 00:11:14 00:11:02 . 11,440 05:15
27 445 DEWET WILFRIED 01:20:54 V1M 10 00:11:22 00:11:22 - 11,422 05:15
28 333 DENIS Gwendoline 01:20:54 SEF 1 00:11:22 00:00:00 . 11,422 05:15
29 385 FONTAINE Nicolas 01:21:00 V1M 11 00:11:28 00:11:28 Acoutrau 11,407 05:16
30 302 MACON Nicolas 01:21:27 SEM 14 00:11:55 00:11:43 . 11,344 05:17
31 364 DELPLANQUE Laurent 01:21:31 SEM 15 00:11:59 00:11:47 . 11,335 05:18
32 311 TETARD Christophe 01:22:06 V2M 3 00:12:34 00:10:32 Ac capellois 11,255 05:20
33 228 TRUPIN Gregory 01:23:17 SEM 16 00:13:45 00:13:33 . 11,095 05:24
34 463 CREPIN FRANCOIS 01:23:24 SEM 17 00:13:52 00:13:40 . 11,079 05:25
35 216 COLMAR Bertrand 01:23:28 SEM 18 00:13:56 00:13:44 . 11,070 05:25
36 276 BOSSART Frederic 01:23:30 V1M 12 00:13:58 00:13:58 Trailers du beef 11,066 05:25
37 222 PHILIS Jacques 01:24:11 V3M 2 00:14:39 00:04:38 . 10,976 05:28
38 427 DOYER Laurent 01:24:15 SEM 19 00:14:43 00:14:31 . 10,967 05:28
39 300 FORESTIER Alain 01:24:35 V2M 4 00:15:03 00:13:01 Colembert 10,924 05:30
40 212 COQUERELLE Corentin 01:24:51 SEM 20 00:15:19 00:15:07 . 10,890 05:31
41 349 LEROUGE Erika 01:24:56 SEF 2 00:15:24 00:04:02 . 10,879 05:31
42 247 TINCHON Didier 01:24:56 V2M 5 00:15:24 00:13:22 . 10,879 05:31
43 229 MASSET Christophe 01:24:57 V2M 6 00:15:25 00:13:23 . 10,877 05:31
44 201 DELATTRE Kevin 01:24:57 SEM 21 00:15:25 00:15:13 Opale crossfit 10,877 05:31
45 457 LEROY BRUNO 01:25:08 SEM 22 00:15:36 00:15:24 - 10,854 05:32
46 390 DESGARDIN Vincent 01:25:15 V1M 13 00:15:43 00:15:43 . 10,839 05:32
47 243 DOMERGUE Julien 01:25:28 SEM 23 00:15:56 00:15:44 . 10,811 05:33
48 360 DAMIENS Philippe 01:25:29 V2M 7 00:15:57 00:13:55 . 10,809 05:33
49 449 HOCHART ANTHONY 01:25:49 CAM 2 00:16:17 00:10:19 . 10,767 05:34
50 339 JOONNEKINDT Mickaël 01:26:00 V1M 14 00:16:28 00:16:28 Team gravelines trail 10,744 05:35
51 372 CALON Jean-christophe 01:26:05 V2M 8 00:16:33 00:14:31 . 10,734 05:35
52 235 SAILLY Fabien 01:27:01 SEM 24 00:17:29 00:17:17 . 10,619 05:39
53 380 MENAGER Arnaud 01:27:09 V1M 15 00:17:37 00:17:37 . 10,602 05:40
54 452 BOUTOILLE LIONEL 01:27:11 V2M 9 00:17:39 00:15:37 - 10,598 05:40
55 358 DUCHÊNE Marc 01:27:12 SEM 25 00:17:40 00:17:28 . 10,596 05:40
56 409 SAUVAGE Patrick 01:27:13 V2M 10 00:17:41 00:15:39 . 10,594 05:40
57 389 DEBOVE Michel 01:27:14 V2M 11 00:17:42 00:15:40 . 10,592 05:40
58 324 DRUJENT Cyrille 01:27:38 V1M 16 00:18:06 00:18:06 Team trail 10,544 05:41
59 400 MORICE Arnaud 01:27:45 V1M 17 00:18:13 00:18:13 . 10,530 05:42
60 460 BARROIS CELINE 01:27:53 V1F 1 00:18:21 00:00:00 ATHLETIQUE CLUB CAPELLOIS 10,514 05:42
61 443 DEVEYER Aurelien 01:28:10 SEM 26 00:18:38 00:18:26 Les baudets 10,480 05:44
62 383 NATANNI Steeven 01:28:14 SEM 27 00:18:42 00:18:30 . 10,472 05:44
63 425 CHIVET Paul 01:28:32 CAM 3 00:19:00 00:13:02 . 10,437 05:45
64 263 BERNARD Bertrand 01:28:40 V1M 18 00:19:08 00:19:08 . 10,421 05:45
65 267 LEMAIRE Audrey 01:28:40 V1F 2 00:19:08 00:00:47 . 10,421 05:45
66 367 RETAUX Claudy 01:28:41 V1M 19 00:19:09 00:19:09 . 10,419 05:46
67 253 COCHON Philippe 01:28:41 V2M 12 00:19:09 00:17:07 Berck opale sud triathlon 10,419 05:46
68 428 LELEU Franck 01:28:45 V2M 13 00:19:13 00:17:11 . 10,411 05:46
69 272 COTTIN Johnny 01:29:05 SEM 28 00:19:33 00:19:21 Jc rallye sport 10,372 05:47
70 375 DIEVAL Jacques 01:29:06 V1M 20 00:19:34 00:19:34 . 10,370 05:47
71 273 PEYRAUD Rudy 01:29:18 V1M 21 00:19:46 00:19:46 . 10,347 05:48
72 371 FALEMPIN Sylvain 01:29:35 V1M 22 00:20:03 00:20:03 Team trail 62 10,314 05:49
73 319 GRESSIER Delphine 01:29:35 V1F 3 00:20:03 00:01:42 Team trail 10,314 05:49
74 458 HANQUEZ ROMAIN 01:29:43 SEM 29 00:20:11 00:19:59 . 10,299 05:50
75 351 FLAMENT Caroline 01:29:56 V1F 4 00:20:24 00:02:03 . 10,274 05:50
76 448 HOCHART JEROME 01:30:08 V1M 23 00:20:36 00:20:36 . 10,251 05:51
77 252 VASSEUR Theo 01:30:22 SEM 30 00:20:50 00:20:38 . 10,225 05:52
78 264 BERNARD Lucile 01:30:36 SEF 3 00:21:04 00:09:42 . 10,199 05:53
79 307 NEPVEU Aurelien 01:30:47 SEM 31 00:21:15 00:21:03 . 10,178 05:54
80 462 BOUVOT CYRILLE 01:31:15 V1M 24 00:21:43 00:21:43 LE DRAPEAU 10,126 05:56
81 393 FORTIN Christophe 01:31:17 SEM 32 00:21:45 00:21:33 . 10,122 05:56
82 269 MAILLARD Thierry 01:31:35 V1M 25 00:22:03 00:22:03 . 10,089 05:57
83 258 MAILLET Julien 01:31:38 SEM 33 00:22:06 00:21:54 . 10,084 05:57
84 301 RENAUD Camille 01:32:07 SEM 34 00:22:35 00:22:23 . 10,031 05:59
85 262 BOUDRY François 01:32:26 SEM 35 00:22:54 00:22:42 . 9,996 06:00
86 346 VANTIEGHEM Flavie 01:32:27 CAF 1 00:22:55 00:00:00 . 9,995 06:00
87 391 DULOT Eric 01:32:38 V2M 14 00:23:06 00:21:04 . 9,975 06:01
88 338 SPILMONT Helène 01:33:53 V1F 5 00:24:21 00:06:00 Wrc 9,842 06:06
89 326 MANIEZ Sebastien 01:34:04 V1M 26 00:24:32 00:24:32 . 9,823 06:06
90 225 LEDEZ Anne-sophie 01:34:08 V1F 6 00:24:36 00:06:15 . 9,816 06:07
91 250 FOUCART Christelle 01:34:11 V2F 1 00:24:39 00:00:00 . 9,811 06:07
92 249 FOUCART Rudy 01:34:12 V2M 15 00:24:40 00:22:38 . 9,809 06:07
93 420 AUZOU Jean-paul 01:34:18 V3M 3 00:24:46 00:14:45 Amicale le drapeau 9,799 06:07
94 256 DUPONT Florian 01:34:31 SEM 36 00:24:59 00:24:47 . 9,776 06:08
95 332 BOIS Stephane 01:34:35 V2M 16 00:25:03 00:23:01 . 9,769 06:09
96 426 DELATTRE Guillaume 01:34:59 SEM 37 00:25:27 00:25:15 . 9,728 06:10
97 314 DACQUIN Fabien 01:35:04 V2M 17 00:25:32 00:23:30 Team trail 9,719 06:10
98 318 GRESSIER Yannick 01:35:05 V2M 18 00:25:33 00:23:31 Team trail 9,718 06:10
99 221 GOLFIERI Claudine 01:35:19 V2F 2 00:25:47 00:01:08 . 9,694 06:11
100 240 BONDOIS Eliot 01:35:20 SEM 38 00:25:48 00:25:36 . 9,692 06:11
101 433 FEUTRY Guillaume 01:35:37 SEM 39 00:26:05 00:25:53 . 9,664 06:13
102 410 WATTEZ Eric 01:35:38 V3M 4 00:26:06 00:16:05 . 9,662 06:13
103 416 DELRUE Charlotte 01:35:39 SEF 4 00:26:07 00:14:45 Bourthes running 9,660 06:13
104 432 STOVEN Frederic 01:35:39 SEM 40 00:26:07 00:25:55 . 9,660 06:13
105 406 PODEVIN Jean-pierre 01:36:01 V2M 19 00:26:29 00:24:27 . 9,623 06:14
106 344 GUYOT Christophe 01:36:08 V1M 27 00:26:36 00:26:36 . 9,612 06:15
107 230 LAIDEZ Jonathan 01:36:19 SEM 41 00:26:47 00:26:35 . 9,593 06:15
108 334 BLOND Gregory 01:36:19 V1M 28 00:26:47 00:26:47 . 9,593 06:15
109 248 DOLLE Frederic 01:36:19 SEM 42 00:26:47 00:26:35 . 9,593 06:15
110 296 MARTIN Thibaut 01:36:37 SEM 43 00:27:05 00:26:53 . 9,564 06:16
111 453 TERSIN VINCENT 01:36:40 SEM 44 00:27:08 00:26:56 - 9,559 06:17
112 315 DELLIAUX EMMANUEL 01:36:42 V1M 29 00:27:10 00:27:10 TEAM TRAIL 62 9,555 06:17
113 415 DAVERTON Aurelie 01:36:47 SEF 5 00:27:15 00:15:53 Bouthes running 9,547 06:17
114 217 VAN KALCK Gaetan 01:36:51 V1M 30 00:27:19 00:27:19 . 9,541 06:17
115 387 DAUTREVAUX David 01:36:56 V1M 31 00:27:24 00:27:24 . 9,532 06:18
116 424 LEDOUX Jeremy 01:37:05 V1M 32 00:27:33 00:27:33 . 9,518 06:18
117 459 DUCROCQ Lorine 01:37:25 SEF 6 00:27:53 00:16:31 . 9,485 06:20
118 419 MARIETTE Yvette 01:37:41 V2F 3 00:28:09 00:03:30 Amicale le drapeau 9,459 06:21
119 438 RAMET Guillaume 01:37:45 SEM 45 00:28:13 00:28:01 . 9,453 06:21
120 378 PLATEEL Didier 01:38:40 V2M 20 00:29:08 00:27:06 . 9,365 06:24
121 366 BRIMEUX Ludovic 01:38:56 V1M 33 00:29:24 00:29:24 . 9,340 06:25
122 355 FOURNIER Olivier 01:39:39 V1M 34 00:30:07 00:30:07 Gravelines triathlon 9,272 06:28
123 444 HUART GUILLAUME 01:39:49 V1M 35 00:30:17 00:30:17 . 9,257 06:29
124 306 MULLET Aurelie 01:40:05 SEF 7 00:30:33 00:19:11 . 9,232 06:30
125 327 NATANNI Christophe 01:40:13 V2M 21 00:30:41 00:28:39 . 9,220 06:30
126 362 CANNIE Franck 01:40:33 V2M 22 00:31:01 00:28:59 . 9,189 06:32
127 405 PIENTON Cedric 01:40:34 SEM 46 00:31:02 00:30:50 . 9,188 06:32
128 353 PATARD Francoise 01:40:36 V2F 4 00:31:04 00:06:25 . 9,185 06:32
129 465 HOLUIGUE LOUISE 01:40:43 SEF 8 00:31:11 00:19:49 STADE LONGUENESSOIS 9,174 06:32
130 464 DUMINY PAUL 01:40:43 SEM 47 00:31:11 00:30:59 . 9,174 06:32
131 392 FEUTRY Patrick 01:41:14 V1M 36 00:31:42 00:31:42 . 9,127 06:34
132 320 LEBAS Eric 01:42:00 V2M 23 00:32:28 00:30:26 Team trail 9,059 06:37
133 347 PETIAUX Gregoire 01:42:03 CAM 4 00:32:31 00:26:33 . 9,054 06:38
134 412 BIZET Vincent 01:42:05 V1M 37 00:32:33 00:32:33 Bourthes running 9,051 06:38
135 395 LEBON Magali 01:42:27 SEF 9 00:32:55 00:21:33 . 9,019 06:39
136 471 VANDERZYPPE THOMAS 01:42:28 SEM 48 00:32:56 00:32:44 . 9,018 06:39
137 397 LEFEBVRE Noella 01:42:28 V2F 5 00:32:56 00:08:17 . 9,018 06:39
138 381 MENAGER Cecile 01:43:08 V1F 7 00:33:36 00:15:15 . 8,959 06:42
139 251 SUEUR Lise 01:43:09 V1F 8 00:33:37 00:15:16 . 8,958 06:42
140 297 DEBAS Gerard 01:43:10 V4M 1 00:33:38 00:00:00 . 8,956 06:42
141 341 LHERMILLIER Amos 01:43:28 SEM 49 00:33:56 00:33:44 . 8,930 06:43
142 472 LECOEUCHE LEO 01:43:31 SEM 50 00:33:59 00:33:47 8,926 06:43
143 239 PARICKMILER Louise 01:44:13 SEF 10 00:34:41 00:23:19 . 8,866 06:46
144 370 CODRON Nadia 01:44:21 V1F 9 00:34:49 00:16:28 Bourthes running 8,855 06:47
145 374 LIBERT Rene 01:44:21 V1M 38 00:34:49 00:34:49 Lefaux 8,855 06:47
146 219 VARLET Benoit 01:44:47 SEM 51 00:35:15 00:35:03 . 8,818 06:48
147 285 BLANPAIN Camille 01:45:09 SEF 11 00:35:37 00:24:15 . 8,787 06:50
148 231 FEVRIER Jean-pierre 01:45:15 V3M 5 00:35:43 00:25:42 . 8,779 06:50
149 322 PAQUES Eric 01:45:32 V2M 24 00:36:00 00:33:58 Team trail 8,756 06:51
150 209 MARANT Elodie 01:45:33 SEF 12 00:36:01 00:24:39 . 8,754 06:51
151 429 BAILLET Gauthier 01:45:48 SEM 52 00:36:16 00:36:04 Caloterie cac 8,733 06:52
152 418 POULY Tony 01:45:55 SEM 53 00:36:23 00:36:11 Amicale le drapeau 8,724 06:53
153 436 WATTEZ Jeremy 01:46:17 SEM 54 00:36:45 00:36:33 . 8,694 06:54
154 431 HOLUIGUE Guillaume 01:46:32 SEM 55 00:37:00 00:36:48 . 8,673 06:55
155 446 CHARTRELLE CHRISTOPHE 01:47:23 V1M 39 00:37:51 00:37:51 . 8,605 06:58
156 335 MEIGNEUX Julie 01:47:23 SEF 13 00:37:51 00:26:29 . 8,605 06:58
157 255 DUBOIS Mickael 01:47:28 V1M 40 00:37:56 00:37:56 . 8,598 06:59
158 345 LAMOTE Armandine 01:47:34 V2F 6 00:38:02 00:13:23 Wrc 8,590 06:59
159 414 DUMONT Guyveline 01:47:39 V1F 10 00:38:07 00:19:46 Bourthes running 8,583 06:59
160 224 LARTISIEN Marjorie 01:47:45 SEF 14 00:38:13 00:26:51 . 8,575 07:00
161 223 VASSEUR David 01:47:45 SEM 56 00:38:13 00:38:01 . 8,575 07:00
162 456 BARLET JEROME 01:47:46 V1M 41 00:38:14 00:38:14 - 8,574 07:00
163 343 MILLAMON Nathalie 01:47:47 V2F 7 00:38:15 00:13:36 . 8,573 07:00
164 226 FREZEL Nathalie 01:48:07 V1F 11 00:38:35 00:20:14 . 8,546 07:01
165 435 GUIRAUD Romain 01:48:24 SEM 57 00:38:52 00:38:40 . 8,524 07:02
166 373 SMAGGHE Muriel 01:48:25 V2F 8 00:38:53 00:14:14 Les cop1dabord 8,523 07:02
167 354 VICTOR-PUJEBET Helène 01:48:28 V2F 9 00:38:56 00:14:17 . 8,519 07:03
168 329 COURONNEL Juliette 01:48:37 V1F 12 00:39:05 00:20:44 . 8,507 07:03
169 340 FOURNIER Tina 01:48:48 V1F 13 00:39:16 00:20:55 . 8,493 07:04
170 352 SEVERIN Francoise 01:48:52 V3F 1 00:39:20 00:00:00 . 8,487 07:04
171 467 LAURENT Isabelle 01:49:09 V1F 14 00:39:37 00:21:16 CULTURE DANSE ETAPLES 8,465 07:05
172 466 LAURENT Jocelyn 01:49:09 V2M 25 00:39:37 00:37:35 CULTURE DANSE ETAPLES 8,465 07:05
173 328 JANECZKO Pauline 01:49:22 SEF 15 00:39:50 00:28:28 . 8,449 07:06
174 399 MORICE Stephanie 01:49:52 V1F 15 00:40:20 00:21:59 . 8,410 07:08
175 363 FOURDIN Damien 01:50:19 SEM 58 00:40:47 00:40:35 . 8,376 07:10
176 271 WOUSSEN Herve 01:50:41 V1M 42 00:41:09 00:41:09 . 8,348 07:11
177 309 DOUAY Corinne 01:51:38 V3F 2 00:42:06 00:02:46 . 8,277 07:15
178 423 LEFRANCOIS Benedicte 01:51:48 V1F 16 00:42:16 00:23:55 . 8,265 07:16
179 246 SANSSOUCY Bastien 01:51:50 SEM 59 00:42:18 00:42:06 . 8,262 07:16
180 220 CHIFFE Antoine 01:52:01 SEM 60 00:42:29 00:42:17 . 8,249 07:16
181 377 LAVIE Betty 01:52:13 V1F 17 00:42:41 00:24:20 . 8,234 07:17
182 242 CONSAEL Julie 01:52:18 SEF 16 00:42:46 00:31:24 . 8,228 07:18
183 382 LACROIX Marine 01:52:20 SEF 17 00:42:48 00:31:26 . 8,226 07:18
184 439 HUET Sabrina 01:52:22 SEF 18 00:42:50 00:31:28 . 8,223 07:18
185 261 SZCZESNIAK Rudy 01:52:38 SEM 61 00:43:06 00:42:54 . 8,204 07:19
186 396 LEDOUX Ginger 01:52:51 SEF 19 00:43:19 00:31:57 . 8,188 07:20
187 211 BUDZINSKI Francois 01:53:13 V2M 26 00:43:41 00:41:39 . 8,161 07:21
188 208 WALLE Sophie 01:53:16 V1F 18 00:43:44 00:25:23 OLYMPIQUE GRANDE-SYNTHE ATHLE 8,158 07:21
189 237 DEBRUXELLES Alain 01:53:22 V3M 6 00:43:50 00:33:49 Cac 8,151 07:22
190 430 BREBION Guillaume 01:53:29 V1M 43 00:43:57 00:43:57 Wimereux running club 8,142 07:22
191 321 LEBEGUE Therese 01:53:55 V2F 10 00:44:23 00:19:44 Team trail 8,111 07:24
192 274 WRONA Virginie 01:54:30 V1F 19 00:44:58 00:26:37 Copains d'abord 8,070 07:26
193 313 RIVIERE Gerald 01:54:32 V2M 27 00:45:00 00:42:58 . 8,068 07:26
194 270 GREMONT ANNE-MARIE 01:54:32 V2F 11 00:45:00 00:20:21 CAC CALOTERIE 8,068 07:26
195 470 BETOURNE CYRILLE 01:54:32 V1M 44 00:45:00 00:45:00 . 8,068 07:26
196 359 FOURNIEZ Pierre 01:54:42 V2M 28 00:45:10 00:43:08 Archer punéen 8,056 07:27
197 305 GAYOT Philippe 01:54:43 V3M 7 00:45:11 00:35:10 Tral du patois 8,055 07:27
198 284 DELPIERRE Johan 01:55:21 SEM 62 00:45:49 00:45:37 . 8,010 07:29
199 312 PETIT Bruno 01:55:39 V3M 8 00:46:07 00:36:06 . 7,990 07:31
200 215 FOURCROY Guillaume 01:55:44 V1M 45 00:46:12 00:46:12 . 7,984 07:31
201 238 ROCHARD Nathalie 01:55:46 V2F 12 00:46:14 00:21:35 . 7,982 07:31
202 411 DUCROCQ Melanie 01:55:54 V1F 20 00:46:22 00:28:01 Vccb 7,972 07:32
203 280 LENDERBAL Pierre 01:55:59 SEM 63 00:46:27 00:46:15 . 7,967 07:32
204 268 DESEILLE Gauthier 01:56:00 SEM 64 00:46:28 00:46:16 . 7,966 07:32
205 293 ROUSSEAU Emma 01:56:04 SEF 20 00:46:32 00:35:10 . 7,961 07:32
206 281 AUMONT Jean-pierre 01:56:05 V2M 29 00:46:33 00:44:31 Uslj 7,960 07:32
207 310 LAMPIN Christian 01:56:09 V2M 30 00:46:37 00:44:35 . 7,955 07:33
208 282 DUHAUT Valery 01:56:10 V1M 46 00:46:38 00:46:38 . 7,954 07:33
209 283 JEAN-BAPTISTE Delphine 01:56:17 V1F 21 00:46:45 00:28:24 Caloterie athlétic club 7,946 07:33
210 287 CHOCHOY Sylvie 01:56:26 V2F 13 00:46:54 00:22:15 . 7,936 07:34
211 278 BERNARD Julie 01:56:28 SEF 21 00:46:56 00:35:34 . 7,934 07:34
212 279 GREMONT Mickael 01:56:28 V1M 47 00:46:56 00:46:56 . 7,934 07:34
213 294 BOUDET-DUC Marie-achille 01:57:06 V2M 31 00:47:34 00:45:32 . 7,891 07:36
214 388 DEBOVE Sandrine 01:57:10 V1F 22 00:47:38 00:29:17 . 7,886 07:36
215 407 ROGERE Katy 01:57:11 V1F 23 00:47:39 00:29:18 . 7,885 07:37
216 401 PALFRAY Martine 01:57:11 V3F 3 00:47:39 00:08:19 . 7,885 07:37
217 386 COUSIN Severine 01:57:11 V1F 24 00:47:39 00:29:18 . 7,885 07:37
218 398 LERICHE Patricia 01:57:11 V3F 4 00:47:39 00:08:19 . 7,885 07:37
219 402 BIGAND Isabelle 01:57:20 SEF 22 00:47:48 00:36:26 . 7,875 07:37
220 316 BONNETAUD Gregory 01:57:49 V1M 48 00:48:17 00:48:17 Team trail 7,843 07:39
221 317 BONNETAUD Cindy 01:58:46 V1F 25 00:49:14 00:30:53 Team trail 7,780 07:43
222 337 SAVET-DELPIERRE Isabelle 01:58:46 V1F 26 00:49:14 00:30:53 . 7,780 07:43
223 413 DACQUIN Pauline 01:58:55 SEF 23 00:49:23 00:38:01 Bourthes running 7,770 07:43
224 205 LELONG Sylvana 01:58:59 V1F 27 00:49:27 00:31:06 . 7,766 07:44
225 241 BAILLEUL Lucie 01:59:11 SEF 24 00:49:39 00:38:17 . 7,753 07:44
226 232 GERVOIS Sylvie 01:59:42 V2F 14 00:50:10 00:25:31 Cac 7,719 07:46
227 404 PERNIN Tony 01:59:56 V1M 49 00:50:24 00:50:24 . 7,704 07:47
228 254 ALVES DOS SANTOS Romuald 01:59:56 V1M 50 00:50:24 00:50:24 . 7,704 07:47
229 403 PERNIN Erika 01:59:56 V1F 28 00:50:24 00:32:03 . 7,704 07:47
230 369 CRETON Patrick 02:00:05 SEM 65 00:50:33 00:50:21 . 7,695 07:48
231 218 DELATTRE Eric 02:01:12 V2M 32 00:51:40 00:49:38 . 7,624 07:52
232 260 DUVAL Maite 02:01:41 SEF 25 00:52:09 00:40:47 . 7,593 07:54
233 291 PERRIN Sandrine 02:02:33 V2F 15 00:53:01 00:28:22 . 7,540 07:57
234 290 BERCHE Lea 02:03:17 SEF 26 00:53:45 00:42:23 . 7,495 08:00
235 286 HONVAULT Alain 02:05:29 V2M 33 00:55:57 00:53:55 . 7,364 08:09
236 368 BROUILLARD Pamela 02:05:46 SEF 27 00:56:14 00:44:52 Team trail 62 7,347 08:10
237 234 PIETQUIN Jean-pierre 02:06:47 V3M 9 00:57:15 00:47:14 . 7,288 08:14
238 292 THOREL Carole 02:07:16 V2F 16 00:57:44 00:33:05 . 7,260 08:16
239 451 DHEDIN OLIVIER 02:07:55 SEM 66 00:58:23 00:58:11 - 7,223 08:18
240 336 COUTELLE Laurent 02:07:57 V2M 34 00:58:25 00:56:23 Serialtraileurs 7,222 08:19
241 356 MARIE Michele 02:07:57 V1F 29 00:58:25 00:40:04 Serialtraileurs 7,222 08:19
242 213 PELZER Amelie 02:08:18 SEF 28 00:58:46 00:47:24 Herlies rando run 7,202 08:20
243 214 PELZER Julien 02:08:18 SEM 67 00:58:46 00:58:34 . 7,202 08:20
244 342 NION Philippe 02:08:28 V1M 51 00:58:56 00:58:56 Asud 7,193 08:21
245 203 FRENOIS Jennifer 02:09:10 V1F 30 00:59:38 00:41:17 . 7,154 08:23
246 204 FRENOIS Jerome 02:09:11 V1M 52 00:59:39 00:59:39 . 7,153 08:23
247 469 MINET ROGER 02:10:39 V4M 2 01:01:07 00:27:29 . 7,072 08:29
248 233 PAIROUX Chantal 02:11:14 V3F 5 01:01:42 00:22:22 . 7,041 08:31
249 437 GERTHOFFER Olivier 02:13:44 V1M 53 01:04:12 01:04:12 . 6,909 08:41
250 304 RETAUX Jean-noël 02:15:43 SEM 68 01:06:11 01:05:59 . 6,808 08:49
251 298 GILLET Julien 02:16:18 SEM 69 01:06:46 01:06:34 . 6,779 08:51
252 265 HAUCHART Celine 02:16:26 SEF 29 01:06:54 00:55:32 . 6,773 08:52
253 422 MILLARD Melanie 02:17:13 V1F 31 01:07:41 00:49:20 . 6,734 08:55
254 244 POIRIER Elodie 02:24:14 SEF 30 01:14:42 01:03:20 . 6,406 09:22
255 245 DOUTRIAUX Helène 02:24:14 SEF 31 01:14:42 01:03:20 . 6,406 09:22